Weather History for Missoula, MT

Change the Weather History Date:

Tuesday, January 22, 2013

  Actual Average Record
Temperature  
Mean Temperature 12 °F 27 °F  
Max Temperature 21 °F 34 °F 53 °F (1910)
Min Temperature 2 °F 19 °F -23 °F (1962)
Degree Days  
Heating Degree Days 53 38  
Month to date heating degree days 1021 876  
Since 1 July heating degree days 3803 4048  
Cooling Degree Days 0 0  
Month to date cooling degree days 0 0  
Year to date cooling degree days 0 0  
Moisture  
Dew Point 6 °F    
Average Humidity 92    
Maximum Humidity 100    
Minimum Humidity 84    
Precipitation  
Precipitation T in 0.03 in 0.43 in (1993)
Month to date precipitation 0.83 0.63  
Year to date precipitation 0.83 0.63  
Snow  
Snow T in - - ()
Month to date snowfall 7.4  
Year to date snowfall 7.4  
Since 1 July snowfall 28.5  
Snow Depth 4.00 in    
Sea Level Pressure  
Sea Level Pressure 30.31 in    
Wind  
Wind Speed 0 mph (NE)    
Max Wind Speed 6 mph    
Max Gust Speed 7 mph    
Visibility 3 miles    
Events Fog , Snow    
T = Trace of Precipitation, MM = Missing Value Source: NWS Daily Summary

Daily Weather History Graph

Daily Weather History Graph

Search for Another Location

Airport:

Trip Planner

Search our weather history database for the weather conditions in past years. The results will help you decide how hot, cold, wet, or windy it might be!

Date:

Astronomy

Jan. 22, 2013 Rise Set
Actual Time 8:11 AM MST 5:24 PM MST
Civil Twilight 7:38 AM MST 5:58 PM MST
Nautical Twilight 7:01 AM MST 6:35 PM MST
Astronomical Twilight 6:25 AM MST 7:11 PM MST
Moon 1:48 PM MST 4:39 AM MST
Length of Visible Light 10h 20m
Length of Day
9h 13m
Waxing Gibbous, 83% of the Moon is Illuminated
Jan 22
Waxing Gibbous
Jan 26
Full
Feb 3
Last Quarter
Feb 10
New
Feb 17
First Quarter

Hourly Weather History & Observations

Time (MST) Temp. Windchill Dew Point Humidity Pressure Visibility Wind Dir Wind Speed Gust Speed Precip Events Conditions
12:53 AM 10.0 °F - 8.1 °F 92% 30.40 in 5.0 mi Calm Calm - N/A   Clear
1:23 AM 6.8 °F - 5.0 °F 92% 30.22 in 1.2 mi Calm Calm - N/A   Clear
1:25 AM 6.8 °F - 5.0 °F 92% 30.22 in 0.8 mi Calm Calm - N/A   Clear
1:38 AM 6.8 °F - 3.2 °F 85% 30.22 in 0.8 mi Calm Calm - N/A   Mist
1:51 AM 6.8 °F - 5.0 °F 92% 30.22 in 0.2 mi Calm Calm - N/A Fog Light Freezing Fog
1:53 AM 7.0 °F - 5.0 °F 92% 30.39 in 0.2 mi Calm Calm - N/A Fog Light Freezing Fog
2:25 AM 6.8 °F - 3.2 °F 85% 30.23 in 1.0 mi Calm Calm - N/A   Mist
2:27 AM 6.8 °F - 3.2 °F 85% 30.23 in 3.0 mi Calm Calm - N/A   Partly Cloudy
2:35 AM 3.2 °F - -0.4 °F 85% 30.24 in 1.8 mi Calm Calm - N/A   Scattered Clouds
2:38 AM 3.2 °F - 1.4 °F 92% 30.24 in 1.0 mi Calm Calm - N/A   Mist
2:46 AM 5.0 °F - 3.2 °F 92% 30.24 in 0.5 mi Calm Calm - N/A Fog Light Freezing Fog
2:53 AM 3.0 °F - 1.0 °F 91% 30.41 in 1.0 mi Calm Calm - N/A   Mist
2:55 AM 3.2 °F - 1.4 °F 92% 30.24 in 1.8 mi Calm Calm - N/A   Mostly Cloudy
2:58 AM 3.2 °F - 1.4 °F 92% 30.24 in 3.0 mi Calm Calm - N/A   Overcast
3:03 AM 3.2 °F - 1.4 °F 92% 30.24 in 1.5 mi Calm Calm - N/A   Overcast
3:05 AM 5.0 °F - 1.4 °F 85% 30.24 in 0.8 mi Calm Calm - N/A   Mist
3:16 AM 6.8 °F - 5.0 °F 92% 30.24 in 0.2 mi Calm Calm - N/A Fog Light Freezing Fog
3:37 AM 6.8 °F - 3.2 °F 85% 30.24 in 0.5 mi Calm Calm - N/A Fog Light Freezing Fog
3:53 AM 3.0 °F - 1.0 °F 91% 30.41 in 0.5 mi Calm Calm - N/A Fog Light Freezing Fog
4:04 AM 3.2 °F - 1.4 °F 92% 30.24 in 0.2 mi Calm Calm - N/A Fog Light Freezing Fog
4:19 AM 3.2 °F - 1.4 °F 92% 30.24 in 0.5 mi Calm Calm - N/A Fog Light Freezing Fog
4:27 AM 3.2 °F - 1.4 °F 92% 30.23 in 0.2 mi Calm Calm - N/A Fog Light Freezing Fog
4:53 AM 1.9 °F - -0.0 °F 91% 30.41 in 0.2 mi Calm Calm - N/A Fog Light Freezing Fog
5:43 AM 3.2 °F - -0.4 °F 85% 30.23 in 1.0 mi Calm Calm - N/A   Mist
5:46 AM 3.2 °F - -0.4 °F 85% 30.23 in 1.5 mi Calm Calm - N/A   Mostly Cloudy
5:53 AM 3.0 °F - 1.0 °F 91% 30.41 in 2.0 mi Calm Calm - N/A   Scattered Clouds
5:55 AM 1.4 °F - -0.4 °F 92% 30.23 in 1.2 mi Calm Calm - N/A   Scattered Clouds
5:58 AM 1.4 °F - -0.4 °F 92% 30.23 in 0.8 mi Calm Calm - N/A   Mist
6:53 AM 6.1 °F - 3.0 °F 87% 30.40 in 0.8 mi Calm Calm - N/A   Mist
7:53 AM 6.1 °F - 3.0 °F 87% 30.42 in 0.5 mi Calm Calm - 0.00 in Fog , Snow Light Snow
8:53 AM 9.0 °F - 7.0 °F 92% 30.43 in 0.5 mi Calm Calm - 0.00 in Fog Light Freezing Fog
9:44 AM 6.8 °F - 6.8 °F 100% 30.26 in 0.2 mi Calm Calm - N/A Fog Light Freezing Fog
9:53 AM 8.1 °F - 7.0 °F 95% 30.46 in 0.2 mi Calm Calm - N/A Fog Light Freezing Fog
10:12 AM 10.4 °F - 8.6 °F 92% 30.27 in 1.0 mi Calm Calm - N/A   Overcast
10:50 AM 10.4 °F - 10.4 °F 100% 30.26 in 2.0 mi Calm Calm - N/A   Scattered Clouds
10:53 AM 10.9 °F - 10.9 °F 100% 30.44 in 2.5 mi Calm Calm - N/A   Scattered Clouds
11:39 AM 15.8 °F - 12.2 °F 86% 30.25 in 5.0 mi Calm Calm - N/A   Clear
11:53 AM 15.1 °F - 12.9 °F 91% 30.41 in 5.0 mi Calm Calm - N/A   Clear
12:53 PM 16.0 °F - 14.0 °F 92% 30.40 in 4.0 mi Calm Calm - N/A   Clear
1:53 PM 18.0 °F - 15.1 °F 88% 30.37 in 8.0 mi Calm Calm - N/A   Clear
2:53 PM 19.0 °F - 15.1 °F 85% 30.36 in 4.0 mi Calm Calm - N/A   Clear
3:53 PM 19.0 °F - 16.0 °F 88% 30.34 in 10.0 mi Calm Calm - N/A   Clear
4:53 PM 19.0 °F - 15.1 °F 85% 30.32 in 10.0 mi Calm Calm - N/A   Clear
5:53 PM 19.9 °F - 17.1 °F 89% 30.32 in 10.0 mi Calm Calm - N/A   Clear
6:53 PM 18.0 °F - 14.0 °F 84% 30.31 in 9.0 mi Calm Calm - N/A   Clear
7:53 PM 18.0 °F 12.7 °F 14.0 °F 84% 30.30 in 9.0 mi ESE 3.5 mph - N/A   Clear
8:53 PM 18.0 °F - 16.0 °F 92% 30.30 in 6.0 mi Calm Calm - N/A   Clear
9:53 PM 15.1 °F - 12.0 °F 88% 30.31 in 7.0 mi Calm Calm - N/A   Clear
10:53 PM 15.1 °F 9.4 °F 12.0 °F 88% 30.33 in 7.0 mi NNW 3.5 mph - N/A   Clear
11:53 PM 12.0 °F - 9.0 °F 88% 30.33 in 5.0 mi Calm Calm - N/A   Clear